Time,TemperatureF,DewpointF,PressureIn,WindDirection,WindDirectionDegrees,WindSpeedMPH,WindSpeedGustMPH,Humidity,HourlyPrecipIn,Conditions,Clouds,dailyrainin,SoftwareType,DateUTC
2013-02-06 00:05:00,36.2,30.9,29.90,SW,220,0.0,0.0,81,0.00,,,0.00,Wunderground v.1.15,2013-02-06 05:05:00,
2013-02-06 00:14:00,36.2,30.9,29.90,SW,220,0.0,0.0,81,0.00,,,0.00,Wunderground v.1.15,2013-02-06 05:14:00,
2013-02-06 00:19:00,36.3,31.0,29.90,SW,220,0.0,0.0,81,0.00,,,0.00,Wunderground v.1.15,2013-02-06 05:19:00,
2013-02-06 00:24:00,36.4,31.1,29.90,SW,220,0.0,0.0,81,0.00,,,0.00,Wunderground v.1.15,2013-02-06 05:24:00,
2013-02-06 00:34:00,37.0,31.7,29.90,SW,220,0.0,0.0,81,0.00,,,0.00,Wunderground v.1.15,2013-02-06 05:34:00,
2013-02-06 00:40:00,37.5,31.9,29.90,SW,220,0.0,0.0,80,0.00,,,0.00,Wunderground v.1.15,2013-02-06 05:40:00,
2013-02-06 00:44:00,37.9,32.3,29.90,SW,220,0.0,0.0,80,0.00,,,0.00,Wunderground v.1.15,2013-02-06 05:44:00,
2013-02-06 00:49:00,38.1,32.2,29.90,SW,220,0.0,0.0,79,0.00,,,0.00,Wunderground v.1.15,2013-02-06 05:49:00,
2013-02-06 00:59:00,37.4,31.5,29.91,SW,220,0.0,0.0,79,0.00,,,0.00,Wunderground v.1.15,2013-02-06 05:59:00,
2013-02-06 01:05:00,37.2,31.6,29.91,SW,220,0.0,0.0,80,0.00,,,0.00,Wunderground v.1.15,2013-02-06 06:05:00,
2013-02-06 01:15:00,36.6,31.0,29.91,SW,222,0.0,1.0,80,0.00,,,0.00,Wunderground v.1.15,2013-02-06 06:15:00,
2013-02-06 01:19:00,36.1,30.8,29.91,SW,222,0.0,0.0,81,0.00,,,0.00,Wunderground v.1.15,2013-02-06 06:19:00,
2013-02-06 01:24:00,35.6,30.6,29.92,SW,222,0.0,0.0,82,0.00,,,0.00,Wunderground v.1.15,2013-02-06 06:24:00,
2013-02-06 01:34:00,34.4,30.1,29.92,SW,220,0.0,0.0,84,0.00,,,0.00,Wunderground v.1.15,2013-02-06 06:34:00,
2013-02-06 01:39:00,34.2,29.9,29.91,SW,220,0.0,0.0,84,0.00,,,0.00,Wunderground v.1.15,2013-02-06 06:39:00,
2013-02-06 01:49:00,34.2,30.2,29.92,SW,220,0.0,0.0,85,0.00,,,0.00,Wunderground v.1.15,2013-02-06 06:49:00,
2013-02-06 01:54:00,34.4,30.4,29.92,SW,220,0.0,0.0,85,0.00,,,0.00,Wunderground v.1.15,2013-02-06 06:54:00,
2013-02-06 02:05:00,34.4,30.1,29.91,SW,220,0.0,1.0,84,0.00,,,0.00,Wunderground v.1.15,2013-02-06 07:05:00,
2013-02-06 02:14:00,34.6,30.3,29.92,SW,220,0.0,0.0,84,0.00,,,0.00,Wunderground v.1.15,2013-02-06 07:14:00,
2013-02-06 02:24:00,34.4,30.1,29.92,SW,220,0.0,0.0,84,0.00,,,0.00,Wunderground v.1.15,2013-02-06 07:24:00,
2013-02-06 02:29:00,34.1,29.8,29.92,SW,220,0.0,0.0,84,0.00,,,0.00,Wunderground v.1.15,2013-02-06 07:29:00,
2013-02-06 02:35:00,33.8,29.5,29.92,SW,220,0.0,0.0,84,0.00,,,0.00,Wunderground v.1.15,2013-02-06 07:35:00,
2013-02-06 02:44:00,33.3,29.3,29.93,SW,220,0.0,0.0,85,0.00,,,0.00,Wunderground v.1.15,2013-02-06 07:44:00,
2013-02-06 02:54:00,32.9,29.2,29.93,SW,220,0.0,0.0,86,0.00,,,0.00,Wunderground v.1.15,2013-02-06 07:54:00,
2013-02-06 02:59:00,32.8,29.4,29.93,SW,220,0.0,0.0,87,0.00,,,0.00,Wunderground v.1.15,2013-02-06 07:59:00,
2013-02-06 03:05:00,32.5,29.1,29.93,SW,220,0.0,0.0,87,0.00,,,0.00,Wunderground v.1.15,2013-02-06 08:05:00,
2013-02-06 03:14:00,32.5,29.3,29.93,SW,220,0.0,0.0,88,0.00,,,0.00,Wunderground v.1.15,2013-02-06 08:14:00,
2013-02-06 03:19:00,32.6,29.4,29.93,SW,220,0.0,0.0,88,0.00,,,0.00,Wunderground v.1.15,2013-02-06 08:19:00,
2013-02-06 03:29:00,33.0,29.6,29.93,SW,220,0.0,0.0,87,0.00,,,0.00,Wunderground v.1.15,2013-02-06 08:29:00,
2013-02-06 03:34:00,33.2,29.8,29.93,SW,220,0.0,0.0,87,0.00,,,0.00,Wunderground v.1.15,2013-02-06 08:34:00,
2013-02-06 03:44:00,33.2,29.8,29.94,SW,220,0.0,0.0,87,0.00,,,0.00,Wunderground v.1.15,2013-02-06 08:44:00,
2013-02-06 03:49:00,33.1,29.4,29.94,SW,220,0.0,0.0,86,0.00,,,0.00,Wunderground v.1.15,2013-02-06 08:49:00,
2013-02-06 03:59:00,33.0,29.3,29.94,SW,220,0.0,0.0,86,0.00,,,0.00,Wunderground v.1.15,2013-02-06 08:59:00,
2013-02-06 04:05:00,32.9,29.2,29.95,SW,220,0.0,0.0,86,0.00,,,0.00,Wunderground v.1.15,2013-02-06 09:05:00,
2013-02-06 04:14:00,32.7,29.3,29.95,SW,220,0.0,0.0,87,0.00,,,0.00,Wunderground v.1.15,2013-02-06 09:14:00,
2013-02-06 04:19:00,32.6,29.2,29.95,SW,220,0.0,0.0,87,0.00,,,0.00,Wunderground v.1.15,2013-02-06 09:19:00,
2013-02-06 04:24:00,32.4,29.0,29.95,SW,220,0.0,0.0,87,0.00,,,0.00,Wunderground v.1.15,2013-02-06 09:24:00,
2013-02-06 04:30:00,32.4,29.0,29.95,SW,220,0.0,0.0,87,0.00,,,0.00,Wunderground v.1.15,2013-02-06 09:30:00,
2013-02-06 04:39:00,32.3,28.9,29.96,SW,220,0.0,0.0,87,0.00,,,0.00,Wunderground v.1.15,2013-02-06 09:39:00,
2013-02-06 04:49:00,31.7,28.6,29.97,SW,220,0.0,0.0,88,0.00,,,0.00,Wunderground v.1.15,2013-02-06 09:49:00,
2013-02-06 04:54:00,31.5,28.4,29.97,SW,220,0.0,0.0,88,0.00,,,0.00,Wunderground v.1.15,2013-02-06 09:54:00,
2013-02-06 05:05:00,31.1,28.0,29.97,SW,220,0.0,0.0,88,0.00,,,0.00,Wunderground v.1.15,2013-02-06 10:05:00,
2013-02-06 05:14:00,30.3,27.4,29.98,WNW,293,0.0,2.0,89,0.00,,,0.00,Wunderground v.1.15,2013-02-06 10:14:00,
2013-02-06 05:20:00,30.1,27.3,29.99,WNW,293,0.0,0.0,89,0.00,,,0.00,Wunderground v.1.15,2013-02-06 10:20:00,
2013-02-06 05:29:00,29.9,27.3,30.00,WNW,293,0.0,0.0,90,0.00,,,0.00,Wunderground v.1.15,2013-02-06 10:29:00,
2013-02-06 05:39:00,29.8,27.2,30.00,WNW,293,0.0,0.0,90,0.00,,,0.00,Wunderground v.1.15,2013-02-06 10:39:00,
2013-02-06 05:45:00,29.7,27.1,30.00,WNW,293,0.0,0.0,90,0.00,,,0.00,Wunderground v.1.15,2013-02-06 10:45:00,
2013-02-06 05:54:00,29.5,26.9,30.01,WNW,293,0.0,0.0,90,0.00,,,0.00,Wunderground v.1.15,2013-02-06 10:54:00,
2013-02-06 06:05:00,29.2,26.9,30.01,WNW,293,0.0,0.0,91,0.00,,,0.00,Wunderground v.1.15,2013-02-06 11:05:00,
2013-02-06 06:14:00,29.0,26.7,30.02,WNW,293,0.0,0.0,91,0.00,,,0.00,Wunderground v.1.15,2013-02-06 11:14:00,
2013-02-06 06:24:00,29.0,26.7,30.03,WNW,293,0.0,0.0,91,0.00,,,0.00,Wunderground v.1.15,2013-02-06 11:24:00,
2013-02-06 06:29:00,29.0,26.7,30.03,WNW,293,0.0,0.0,91,0.00,,,0.00,Wunderground v.1.15,2013-02-06 11:29:00,
2013-02-06 06:35:00,29.0,27.0,30.03,WNW,293,0.0,0.0,92,0.00,,,0.00,Wunderground v.1.15,2013-02-06 11:35:00,
2013-02-06 06:44:00,29.0,26.7,30.04,WNW,293,0.0,0.0,91,0.00,,,0.00,Wunderground v.1.15,2013-02-06 11:44:00,
2013-02-06 06:54:00,28.8,26.5,30.05,WNW,293,0.0,0.0,91,0.00,,,0.00,Wunderground v.1.15,2013-02-06 11:54:00,
2013-02-06 06:59:00,28.6,26.3,30.05,WNW,293,0.0,0.0,91,0.00,,,0.00,Wunderground v.1.15,2013-02-06 11:59:00,
2013-02-06 07:05:00,28.4,26.1,30.06,WNW,294,0.0,0.0,91,0.00,,,0.00,Wunderground v.1.15,2013-02-06 12:05:00,
2013-02-06 07:14:00,28.0,25.7,30.06,WNW,294,0.0,0.0,91,0.00,,,0.00,Wunderground v.1.15,2013-02-06 12:14:00,
2013-02-06 07:19:00,27.7,25.4,30.06,WNW,293,0.0,0.0,91,0.00,,,0.00,Wunderground v.1.15,2013-02-06 12:19:00,
2013-02-06 07:25:00,27.6,25.6,30.06,WNW,293,0.0,0.0,92,0.00,,,0.00,Wunderground v.1.15,2013-02-06 12:25:00,
2013-02-06 07:34:00,27.7,25.7,30.07,WNW,294,0.0,1.0,92,0.00,,,0.00,Wunderground v.1.15,2013-02-06 12:34:00,
2013-02-06 07:40:00,27.6,25.6,30.08,WNW,294,0.0,0.0,92,0.00,,,0.00,Wunderground v.1.15,2013-02-06 12:40:00,
2013-02-06 07:49:00,27.9,26.1,30.09,WNW,294,0.0,0.0,93,0.00,,,0.00,Wunderground v.1.15,2013-02-06 12:49:00,
2013-02-06 07:55:00,28.2,26.4,30.09,WNW,293,0.0,0.0,93,0.00,,,0.00,Wunderground v.1.15,2013-02-06 12:55:00,
2013-02-06 08:05:00,28.8,27.0,30.09,WNW,293,0.0,0.0,93,0.00,,,0.00,Wunderground v.1.15,2013-02-06 13:05:00,
2013-02-06 08:15:00,29.5,27.7,30.09,WNW,293,0.0,0.0,93,0.00,,,0.00,Wunderground v.1.15,2013-02-06 13:15:00,
2013-02-06 08:24:00,29.7,27.7,30.10,SE,126,0.0,0.0,92,0.00,,,0.00,Wunderground v.1.15,2013-02-06 13:24:00,
2013-02-06 08:34:00,30.1,28.1,30.10,SE,127,0.0,0.0,92,0.00,,,0.00,Wunderground v.1.15,2013-02-06 13:34:00,
2013-02-06 08:39:00,30.5,28.5,30.10,SE,125,0.0,0.0,92,0.00,,,0.00,Wunderground v.1.15,2013-02-06 13:39:00,
2013-02-06 08:45:00,30.8,28.8,30.11,SE,127,0.0,0.0,92,0.00,,,0.00,Wunderground v.1.15,2013-02-06 13:45:00,
2013-02-06 08:54:00,31.2,29.1,30.12,SE,127,0.0,0.0,92,0.00,,,0.00,Wunderground v.1.15,2013-02-06 13:54:00,
2013-02-06 09:05:00,32.3,30.2,30.13,SE,128,0.0,0.0,92,0.00,,,0.00,Wunderground v.1.15,2013-02-06 14:05:00,
2013-02-06 09:14:00,33.3,31.0,30.13,SE,128,0.0,0.0,91,0.00,,,0.00,Wunderground v.1.15,2013-02-06 14:14:00,
2013-02-06 09:20:00,33.7,31.1,30.13,SE,128,0.0,0.0,90,0.00,,,0.00,Wunderground v.1.15,2013-02-06 14:20:00,
2013-02-06 09:29:00,35.0,32.1,30.13,SE,127,0.0,0.0,89,0.00,,,0.00,Wunderground v.1.15,2013-02-06 14:29:00,
2013-02-06 09:39:00,36.6,33.1,30.13,SE,127,0.0,0.0,87,0.00,,,0.00,Wunderground v.1.15,2013-02-06 14:39:00,
2013-02-06 09:44:00,37.1,33.0,30.13,SE,128,0.0,0.0,85,0.00,,,0.00,Wunderground v.1.15,2013-02-06 14:44:00,
2013-02-06 09:54:00,38.0,33.6,30.14,SSE,152,0.0,0.0,84,0.00,,,0.00,Wunderground v.1.15,2013-02-06 14:54:00,
2013-02-06 09:59:00,38.6,33.9,30.14,SSE,155,0.0,1.0,83,0.00,,,0.00,Wunderground v.1.15,2013-02-06 14:59:00,
2013-02-06 10:05:00,39.2,33.5,30.14,SSE,155,0.0,1.0,80,0.00,,,0.00,Wunderground v.1.15,2013-02-06 15:05:00,
2013-02-06 10:14:00,40.7,34.0,30.15,SW,233,0.0,0.0,77,0.00,,,0.00,Wunderground v.1.15,2013-02-06 15:14:00,
2013-02-06 10:19:00,42.0,34.0,30.15,SW,236,1.0,1.0,73,0.00,,,0.00,Wunderground v.1.15,2013-02-06 15:19:00,
2013-02-06 10:29:00,44.1,33.5,30.15,South,181,1.0,1.0,66,0.00,,,0.00,Wunderground v.1.15,2013-02-06 15:29:00,
2013-02-06 10:34:00,44.7,34.0,30.15,South,174,0.0,1.0,66,0.00,,,0.00,Wunderground v.1.15,2013-02-06 15:34:00,
2013-02-06 10:44:00,45.4,32.3,30.15,South,182,0.0,2.0,60,0.00,,,0.00,Wunderground v.1.15,2013-02-06 15:44:00,
2013-02-06 10:49:00,45.8,32.7,30.14,South,190,1.0,1.0,60,0.00,,,0.00,Wunderground v.1.15,2013-02-06 15:49:00,
2013-02-06 10:59:00,46.3,32.7,30.15,WNW,296,1.0,1.0,59,0.00,,,0.00,Wunderground v.1.15,2013-02-06 15:59:00,
2013-02-06 11:05:00,46.6,33.0,30.15,SW,234,0.0,1.0,59,0.00,,,0.00,Wunderground v.1.15,2013-02-06 16:05:00,
2013-02-06 11:14:00,46.8,32.4,30.15,SSW,201,0.0,0.0,57,0.00,,,0.00,Wunderground v.1.15,2013-02-06 16:14:00,
2013-02-06 11:24:00,47.3,32.4,30.15,NW,317,1.0,4.0,56,0.00,,,0.00,Wunderground v.1.15,2013-02-06 16:24:00,
2013-02-06 11:30:00,47.8,31.9,30.15,NNW,333,1.0,7.0,54,0.00,,,0.00,Wunderground v.1.15,2013-02-06 16:30:00,
2013-02-06 11:39:00,48.5,33.1,30.15,North,8,2.0,3.0,55,0.00,,,0.00,Wunderground v.1.15,2013-02-06 16:39:00,
2013-02-06 11:49:00,48.8,31.9,30.15,NNW,347,2.0,4.0,52,0.00,,,0.00,Wunderground v.1.15,2013-02-06 16:49:00,
2013-02-06 11:54:00,48.8,32.4,30.15,WNW,303,2.0,4.0,53,0.00,,,0.00,Wunderground v.1.15,2013-02-06 16:54:00,
2013-02-06 12:05:00,49.3,31.9,30.15,WNW,287,2.0,3.0,51,0.00,,,0.00,Wunderground v.1.15,2013-02-06 17:05:00,
2013-02-06 12:14:00,49.3,32.4,30.15,North,359,2.0,4.0,52,0.00,,,0.00,Wunderground v.1.15,2013-02-06 17:14:00,
2013-02-06 12:24:00,50.0,32.1,30.15,North,349,3.0,4.0,50,0.00,,,0.00,Wunderground v.1.15,2013-02-06 17:24:00,
2013-02-06 12:29:00,49.9,32.0,30.14,NNE,18,2.0,2.0,50,0.00,,,0.00,Wunderground v.1.15,2013-02-06 17:29:00,
2013-02-06 12:35:00,50.0,32.6,30.14,NNW,335,2.0,2.0,51,0.00,,,0.00,Wunderground v.1.15,2013-02-06 17:35:00,
2013-02-06 12:44:00,50.4,32.4,30.15,South,184,1.0,1.0,50,0.00,,,0.00,Wunderground v.1.15,2013-02-06 17:44:00,
2013-02-06 12:54:00,50.8,32.3,30.15,North,354,1.0,3.0,49,0.00,,,0.00,Wunderground v.1.15,2013-02-06 17:54:00,
2013-02-06 12:59:00,51.0,32.0,30.15,NNW,337,2.0,2.0,48,0.00,,,0.00,Wunderground v.1.15,2013-02-06 17:59:00,
2013-02-06 13:05:00,51.1,32.1,30.15,West,278,2.0,8.0,48,0.00,,,0.00,Wunderground v.1.15,2013-02-06 18:05:00,
2013-02-06 13:14:00,51.8,32.2,30.15,NW,319,2.0,2.0,47,0.00,,,0.00,Wunderground v.1.15,2013-02-06 18:14:00,
2013-02-06 13:19:00,51.8,31.7,30.14,West,265,2.0,2.0,46,0.00,,,0.00,Wunderground v.1.15,2013-02-06 18:19:00,
2013-02-06 13:29:00,52.3,31.6,30.13,SW,216,1.0,1.0,45,0.00,,,0.00,Wunderground v.1.15,2013-02-06 18:29:00,
2013-02-06 13:34:00,52.4,31.7,30.13,East,81,1.0,1.0,45,0.00,,,0.00,Wunderground v.1.15,2013-02-06 18:34:00,
2013-02-06 13:44:00,52.5,31.2,30.14,North,11,1.0,1.0,44,0.00,,,0.00,Wunderground v.1.15,2013-02-06 18:44:00,
2013-02-06 13:49:00,52.4,31.7,30.14,ESE,106,0.0,2.0,45,0.00,,,0.00,Wunderground v.1.15,2013-02-06 18:49:00,
2013-02-06 13:59:00,52.8,33.1,30.13,WNW,300,1.0,2.0,47,0.00,,,0.00,Wunderground v.1.15,2013-02-06 18:59:00,
2013-02-06 14:05:00,53.1,31.7,30.14,North,354,0.0,5.0,44,0.00,,,0.00,Wunderground v.1.15,2013-02-06 19:05:00,
2013-02-06 14:14:00,52.9,31.6,30.14,NW,307,1.0,1.0,44,0.00,,,0.00,Wunderground v.1.15,2013-02-06 19:14:00,
2013-02-06 14:19:00,53.2,31.8,30.13,SSE,148,0.0,0.0,44,0.00,,,0.00,Wunderground v.1.15,2013-02-06 19:19:00,
2013-02-06 14:24:00,53.5,32.7,30.14,SW,216,1.0,1.0,45,0.00,,,0.00,Wunderground v.1.15,2013-02-06 19:24:00,
2013-02-06 14:34:00,53.4,31.4,30.14,NNW,327,2.0,2.0,43,0.00,,,0.00,Wunderground v.1.15,2013-02-06 19:34:00,
2013-02-06 14:39:00,53.2,31.3,30.14,North,354,2.0,3.0,43,0.00,,,0.00,Wunderground v.1.15,2013-02-06 19:39:00,
2013-02-06 14:49:00,52.4,31.7,30.14,NNE,13,1.0,1.0,45,0.00,,,0.00,Wunderground v.1.15,2013-02-06 19:49:00,
2013-02-06 14:55:00,52.3,31.0,30.14,WNW,293,1.0,2.0,44,0.00,,,0.00,Wunderground v.1.15,2013-02-06 19:55:00,
2013-02-06 15:05:00,52.1,31.4,30.14,NNW,330,2.0,4.0,45,0.00,,,0.00,Wunderground v.1.15,2013-02-06 20:05:00,
2013-02-06 15:14:00,52.0,30.7,30.15,WSW,252,1.0,2.0,44,0.00,,,0.00,Wunderground v.1.15,2013-02-06 20:14:00,
2013-02-06 15:24:00,51.9,30.6,30.14,ESE,122,0.0,1.0,44,0.00,,,0.00,Wunderground v.1.15,2013-02-06 20:24:00,
2013-02-06 15:29:00,51.9,31.2,30.14,SSW,208,1.0,1.0,45,0.00,,,0.00,Wunderground v.1.15,2013-02-06 20:29:00,
2013-02-06 15:39:00,51.6,30.9,30.14,SSW,208,1.0,1.0,45,0.00,,,0.00,Wunderground v.1.15,2013-02-06 20:39:00,
2013-02-06 15:49:00,51.6,30.4,30.15,West,271,0.0,2.0,44,0.00,,,0.00,Wunderground v.1.15,2013-02-06 20:49:00,
2013-02-06 15:54:00,51.7,29.9,30.15,NW,316,0.0,4.0,43,0.00,,,0.00,Wunderground v.1.15,2013-02-06 20:54:00,
2013-02-06 15:59:00,51.8,30.0,30.15,NNW,338,1.0,1.0,43,0.00,,,0.00,Wunderground v.1.15,2013-02-06 20:59:00,
2013-02-06 16:05:00,51.7,29.9,30.15,NNW,336,1.0,1.0,43,0.00,,,0.00,Wunderground v.1.15,2013-02-06 21:05:00,
2013-02-06 16:14:00,51.5,30.8,30.15,NE,41,0.0,1.0,45,0.00,,,0.00,Wunderground v.1.15,2013-02-06 21:14:00,
2013-02-06 16:19:00,51.3,30.7,30.15,ESE,112,0.0,1.0,45,0.00,,,0.00,Wunderground v.1.15,2013-02-06 21:19:00,
2013-02-06 16:29:00,50.9,30.8,30.15,NE,42,0.0,0.0,46,0.00,,,0.00,Wunderground v.1.15,2013-02-06 21:29:00,
2013-02-06 16:39:00,50.7,29.6,30.16,SSE,156,0.0,1.0,44,0.00,,,0.00,Wunderground v.1.15,2013-02-06 21:39:00,
2013-02-06 16:44:00,50.6,30.0,30.16,SSE,152,0.0,1.0,45,0.00,,,0.00,Wunderground v.1.15,2013-02-06 21:44:00,
2013-02-06 16:49:00,50.5,29.9,30.16,South,174,0.0,0.0,45,0.00,,,0.00,Wunderground v.1.15,2013-02-06 21:49:00,
2013-02-06 16:59:00,50.3,29.7,30.17,South,182,0.0,1.0,45,0.00,,,0.00,Wunderground v.1.15,2013-02-06 21:59:00,
2013-02-06 17:05:00,50.1,30.1,30.17,South,178,0.0,1.0,46,0.00,,,0.00,Wunderground v.1.15,2013-02-06 22:05:00,
2013-02-06 17:14:00,49.7,29.7,30.17,SSW,198,0.0,0.0,46,0.00,,,0.00,Wunderground v.1.15,2013-02-06 22:14:00,
2013-02-06 17:19:00,49.5,29.6,30.17,SSW,198,0.0,0.0,46,0.00,,,0.00,Wunderground v.1.15,2013-02-06 22:19:00,
2013-02-06 17:24:00,49.2,29.3,30.17,SSW,199,0.0,0.0,46,0.00,,,0.00,Wunderground v.1.15,2013-02-06 22:24:00,
2013-02-06 17:34:00,48.6,29.3,30.17,SSW,198,0.0,0.0,47,0.00,,,0.00,Wunderground v.1.15,2013-02-06 22:34:00,
2013-02-06 17:44:00,47.8,29.0,30.18,SSW,198,0.0,0.0,48,0.00,,,0.00,Wunderground v.1.15,2013-02-06 22:44:00,
2013-02-06 17:49:00,47.4,28.7,30.18,SSW,198,0.0,0.0,48,0.00,,,0.00,Wunderground v.1.15,2013-02-06 22:49:00,
2013-02-06 17:59:00,46.5,27.8,30.18,SSW,198,0.0,0.0,48,0.00,,,0.00,Wunderground v.1.15,2013-02-06 22:59:00,
2013-02-06 18:05:00,46.3,28.2,30.19,SSW,198,0.0,0.0,49,0.00,,,0.00,Wunderground v.1.15,2013-02-06 23:05:00,
2013-02-06 18:14:00,46.2,28.1,30.19,SSW,198,0.0,0.0,49,0.00,,,0.00,Wunderground v.1.15,2013-02-06 23:14:00,
2013-02-06 18:24:00,46.0,27.9,30.20,SSW,198,0.0,0.0,49,0.00,,,0.00,Wunderground v.1.15,2013-02-06 23:24:00,
2013-02-06 18:29:00,45.8,27.7,30.20,SSW,198,0.0,0.0,49,0.00,,,0.00,Wunderground v.1.15,2013-02-06 23:29:00,
2013-02-06 18:39:00,45.3,27.7,30.21,SSW,198,0.0,0.0,50,0.00,,,0.00,Wunderground v.1.15,2013-02-06 23:39:00,
2013-02-06 18:44:00,45.4,27.8,30.21,SSW,198,0.0,0.0,50,0.00,,,0.00,Wunderground v.1.15,2013-02-06 23:44:00,
2013-02-06 18:54:00,45.2,28.6,30.22,SSW,198,0.0,0.0,52,0.00,,,0.00,Wunderground v.1.15,2013-02-06 23:54:00,
2013-02-06 19:05:00,44.1,27.6,30.22,SSW,198,0.0,0.0,52,0.00,,,0.00,Wunderground v.1.15,2013-02-07 00:05:00,
2013-02-06 19:14:00,43.3,27.3,30.22,SSW,198,0.0,0.0,53,0.00,,,0.00,Wunderground v.1.15,2013-02-07 00:14:00,
2013-02-06 19:19:00,42.9,27.8,30.22,SSW,198,0.0,0.0,55,0.00,,,0.00,Wunderground v.1.15,2013-02-07 00:19:00,
2013-02-06 19:29:00,40.3,28.3,30.23,East,98,0.0,0.0,62,0.00,,,0.00,Wunderground v.1.15,2013-02-07 00:29:00,
2013-02-06 19:34:00,39.5,28.3,30.24,East,98,0.0,1.0,64,0.00,,,0.00,Wunderground v.1.15,2013-02-07 00:34:00,
2013-02-06 19:44:00,40.2,29.0,30.25,East,98,1.0,1.0,64,0.00,,,0.00,Wunderground v.1.15,2013-02-07 00:44:00,
2013-02-06 19:54:00,40.6,28.6,30.25,East,98,0.0,1.0,62,0.00,,,0.00,Wunderground v.1.15,2013-02-07 00:54:00,
2013-02-06 19:59:00,40.7,28.7,30.26,East,99,0.0,0.0,62,0.00,,,0.00,Wunderground v.1.15,2013-02-07 00:59:00,
2013-02-06 20:05:00,40.5,28.9,30.26,East,98,0.0,0.0,63,0.00,,,0.00,Wunderground v.1.15,2013-02-07 01:05:00,
2013-02-06 20:14:00,40.2,28.6,30.26,East,98,0.0,0.0,63,0.00,,,0.00,Wunderground v.1.15,2013-02-07 01:14:00,
2013-02-06 20:19:00,39.9,28.7,30.26,East,98,0.0,0.0,64,0.00,,,0.00,Wunderground v.1.15,2013-02-07 01:19:00,
2013-02-06 20:24:00,39.7,28.5,30.26,East,99,0.0,0.0,64,0.00,,,0.00,Wunderground v.1.15,2013-02-07 01:24:00,
2013-02-06 20:34:00,39.4,28.6,30.26,East,98,0.0,0.0,65,0.00,,,0.00,Wunderground v.1.15,2013-02-07 01:34:00,
2013-02-06 20:39:00,39.2,28.8,30.26,East,99,0.0,0.0,66,0.00,,,0.00,Wunderground v.1.15,2013-02-07 01:39:00,
2013-02-06 20:49:00,38.7,28.3,30.27,East,99,0.0,0.0,66,0.00,,,0.00,Wunderground v.1.15,2013-02-07 01:49:00,
2013-02-06 20:54:00,38.5,28.1,30.27,East,99,0.0,0.0,66,0.00,,,0.00,Wunderground v.1.15,2013-02-07 01:54:00,
2013-02-06 21:05:00,38.0,28.0,30.28,East,98,0.0,0.0,67,0.00,,,0.00,Wunderground v.1.15,2013-02-07 02:05:00,
2013-02-06 21:14:00,37.7,27.7,30.29,East,98,0.0,0.0,67,0.00,,,0.00,Wunderground v.1.15,2013-02-07 02:14:00,
2013-02-06 21:24:00,37.4,27.8,30.29,East,98,0.0,0.0,68,0.00,,,0.00,Wunderground v.1.15,2013-02-07 02:24:00,
2013-02-06 21:29:00,37.3,27.3,30.30,East,98,0.0,0.0,67,0.00,,,0.00,Wunderground v.1.15,2013-02-07 02:29:00,
2013-02-06 21:39:00,36.8,27.2,30.30,East,98,0.0,0.0,68,0.00,,,0.00,Wunderground v.1.15,2013-02-07 02:39:00,
2013-02-06 21:45:00,36.6,27.4,30.30,East,98,0.0,0.0,69,0.00,,,0.00,Wunderground v.1.15,2013-02-07 02:45:00,
2013-02-06 21:54:00,36.1,27.3,30.31,East,98,0.0,0.0,70,0.00,,,0.00,Wunderground v.1.15,2013-02-07 02:54:00,
2013-02-06 22:05:00,35.7,27.2,30.30,East,98,0.0,0.0,71,0.00,,,0.00,Wunderground v.1.15,2013-02-07 03:05:00,
2013-02-06 22:14:00,35.3,27.2,30.30,East,99,0.0,0.0,72,0.00,,,0.00,Wunderground v.1.15,2013-02-07 03:14:00,
2013-02-06 22:24:00,34.8,27.0,30.30,East,98,0.0,0.0,73,0.00,,,0.00,Wunderground v.1.15,2013-02-07 03:24:00,
2013-02-06 22:29:00,34.6,26.8,30.30,East,98,0.0,0.0,73,0.00,,,0.00,Wunderground v.1.15,2013-02-07 03:29:00,
2013-02-06 22:39:00,34.4,27.0,30.31,East,99,0.0,0.0,74,0.00,,,0.00,Wunderground v.1.15,2013-02-07 03:39:00,
2013-02-06 22:44:00,34.4,27.0,30.31,East,98,0.0,0.0,74,0.00,,,0.00,Wunderground v.1.15,2013-02-07 03:44:00,
2013-02-06 22:49:00,34.3,26.9,30.31,East,98,0.0,0.0,74,0.00,,,0.00,Wunderground v.1.15,2013-02-07 03:49:00,
2013-02-06 22:59:00,34.0,26.9,30.31,East,99,0.0,0.0,75,0.00,,,0.00,Wunderground v.1.15,2013-02-07 03:59:00,
2013-02-06 23:05:00,33.8,26.7,30.30,East,98,0.0,0.0,75,0.00,,,0.00,Wunderground v.1.15,2013-02-07 04:05:00,
2013-02-06 23:14:00,33.4,26.6,30.30,East,98,0.0,0.0,76,0.00,,,0.00,Wunderground v.1.15,2013-02-07 04:14:00,
2013-02-06 23:19:00,33.3,26.5,30.31,East,98,0.0,0.0,76,0.00,,,0.00,Wunderground v.1.15,2013-02-07 04:19:00,
2013-02-06 23:29:00,32.9,26.2,30.31,East,99,0.0,0.0,76,0.00,,,0.00,Wunderground v.1.15,2013-02-07 04:29:00,
2013-02-06 23:34:00,32.6,26.2,30.31,East,98,0.0,0.0,77,0.00,,,0.00,Wunderground v.1.15,2013-02-07 04:34:00,
2013-02-06 23:44:00,32.3,26.2,30.33,East,98,0.0,0.0,78,0.00,,,0.00,Wunderground v.1.15,2013-02-07 04:44:00,
2013-02-06 23:49:00,32.1,26.0,30.32,East,98,0.0,0.0,78,0.00,,,0.00,Wunderground v.1.15,2013-02-07 04:49:00,
2013-02-06 23:59:00,31.9,26.1,30.33,East,99,0.0,0.0,79,0.00,,,0.00,Wunderground v.1.15,2013-02-07 04:59:00,